Retour au catalogue

STARLINK-3546

ActifCommunicationsVLEO
NORAD 51718·PAYLOAD·🇺🇸 United States

Lancé Feb 21, 2022 depuis Cape Canaveral Space Force Station

Loading…

Prochains Passages (prochaines 24 heures)

TLE

FraisSource: CelesTrak SupGP

Époque: Sep 14, 2026, 22:00 UTC

1 51718C 22016E   26257.91715278 -.00026678  00000+0 -10938-2 0  2575
2 51718  53.1823 182.6648 0004326 109.4431   1.7623 15.23738126    16

Suivez STARLINK-3546 en temps réel avec AllMySat

Download on the App Store